Location: Waning Moon II Observatory
(30.3730°N, 89.7620°W)
Time: 19:18:14
(UTC-05:00)

Meteor 1-21 - Visible Passes

Search period start: 06 July 2015 00:00
Search period end: 16 July 2015 00:00
Orbit: 844 x 889 km, 81.2° (Epoch: 05 July)

Date Brightness Start Highest point End Pass type
(mag) Time Alt. Az. Time Alt. Az. Time Alt. Az.
06 Jul 5.0 04:10:13 10° N 04:15:39 51° E 04:21:08 10° SSE visible
07 Jul 5.0 04:02:55 10° N 04:08:22 51° E 04:13:51 10° SSE visible
08 Jul 4.9 03:55:38 10° N 04:01:05 52° E 04:06:35 10° SSE visible
09 Jul 4.9 03:48:20 10° N 03:53:48 52° E 03:58:52 12° SSE visible
09 Jul 5.9 05:33:39 10° NW 05:36:41 14° W 05:39:23 10° WSW visible
10 Jul 4.9 03:41:03 10° N 03:46:31 53° E 03:50:35 18° SSE visible
10 Jul 5.9 05:26:24 10° WNW 05:29:24 14° W 05:32:03 10° WSW visible
11 Jul 4.8 03:33:45 10° N 03:39:14 54° E 03:42:24 25° SSE visible
11 Jul 5.9 05:19:10 10° WNW 05:22:07 14° W 05:24:41 10° WSW visible
12 Jul 4.8 03:26:27 10° N 03:31:57 54° E 03:34:21 32° SE visible
12 Jul 5.9 05:11:55 10° WNW 05:14:50 14° W 05:16:38 12° WSW visible
13 Jul 4.7 03:19:10 10° N 03:24:40 55° E 03:26:22 40° SE visible
13 Jul 5.9 05:04:41 10° WNW 05:07:32 14° W 05:08:39 13° W visible
14 Jul 4.7 03:11:52 10° N 03:17:23 56° E 03:18:28 48° ESE visible
14 Jul 5.9 04:57:27 10° WNW 05:00:16 13° W 05:00:45 13° W visible
15 Jul 4.6 03:04:34 10° N 03:10:07 57° E 03:10:37 55° ESE visible
15 Jul 6.0 04:50:13 10° WNW 04:52:55 13° W 04:52:55 13° W visible
